Wind_Speed
7 8 18 22 21 21 18 6 14 7 10 12 22 12 6 5 8 7 4 4 8 16 14 18 17 24 29 24 23 17 18 15 17 10 9 6 3 3 3 3 4 3 2 1
15 11 15 18 14 13 15 3 10 7 10 14 16 13 9 2 4 5 6 10 10 15 15 12 12 19 24 25 24 20 23 26 18 12 5 5 6 5 7 3 3 2 2 1
19 13 14 15 16 15 11 10 10 8 12 13 19 11 9 6 5 2 6 7 9 9 7 8 9 14 25 29 25 20 39 24 16 7 6 10 5 6 7 8 4 3 4 3
16 15 14 8 13 12 7 9 8 7 17 26 19 10 11 7 12 9 3 5 4 3 7 11 11 12 17 20 24 31 31 21 15 10 9 8 7 9 10 8 7 5 5 6
17 16 15 13 12 12 13 12 11 8 12 16 12 10 3 15 19 20 12 6 3 4 2 7 12 15 16 19 23 25 24 20 16 13 12 12 11 10 11 11 10 11 6 4
22 15 11 8 12 11 10 11 15 15 19 8 17 12 22 32 18 23 17 14 10 10 6 5 6 12 14 15 18 21 20 18 16 14 14 12 11 10 11 11 10 9 18 12
14 15 12 11 11 11 15 17 14 6 5 7 20 13 13 19 22 16 15 14 13 14 11 4 5 3 6 11 12 13 15 13 12 11 13 14 12 12 14 13 8 5 13 9
17 19 17 13 10 11 14 12 11 3 5 7 18 2 6 1 21 23 22 20 21 22 15 4 6 5 5 5 3 6 7 9 9 10 9 10 13 14 12 13 11 8 10 12
9 12 10 7 10 11 15 14 17 17 26 19 7 4 9 12 13 10 23 29 35 32 23 15 8 9 7 8 11 7 5 3 4 5 6 9 10 12 13 11 12 10 10 14
4 7 5 13 13 11 11 9 15 16 2 5 7 9 16 17 5 7 33 38 35 34 28 11 12 13 9 7 8 10 14 13 10 9 9 10 13 13 13 14 12 12 11 12
12 12 7 11 9 17 11 16 18 13 16 5 5 1 17 13 8 26 20 30 11 7 18 19 19 12 18 11 10 11 13 16 19 18 14 15 16 15 15 15 15 14 15 15
2 10 16 6 3 8 9 15 13 13 17 17 12 4 17 14 12 5 18 7 13 17 25 23 17 13 16 15 15 11 11 14 15 14 13 14 15 16 16 18 18 16 18 22
5 8 14 5 5 15 16 10 9 12 9 9 5 5 15 5 5 28 17 16 23 21 17 11 9 11 10 7 5 5 4 2 3 5 8 12 11 12 14 17 18 14 15 18
12 16 13 13 2 12 11 17 14 10 10 10 8 11 20 13 17 33 26 21 22 17 15 10 10 11 10 10 9 9 8 5 2 3 5 6 7 8 9 12 14 15 17 17
8 16 13 16 8 13 11 11 14 13 12 13 8 6 27 15 7 26 27 27 27 17 16 15 13 15 13 12 8 5 3 3 4 5 8 10 11 13 14 14 15 15 16 16
3 11 9 12 13 11 10 12 8 11 9 8 10 7 12 11 21 20 25 32 23 18 16 19 21 18 14 10 5 1 3 4 7 9 11 14 17 18 19 20 20 20 19 20
8 3 9 18 18 14 6 12 7 7 9 12 16 5 20 19 21 19 26 27 24 22 22 18 15 19 15 9 7 6 7 10 11 13 16 17 19 21 23 22 22 23 24 24
16 14 13 15 14 4 9 12 12 11 11 8 8 1 9 14 15 12 16 21 25 31 28 26 17 13 10 7 7 8 11 15 18 20 20 20 21 21 23 23 24 26 28 28
17 21 23 17 13 15 16 11 7 8 4 3 5 5 20 22 23 17 15 20 35 33 29 17 11 9 7 7 8 12 17 20 22 22 21 20 20 19 20 22 23 23 24 26
22 23 24 27 15 6 18 18 9 8 10 10 7 8 26 22 17 20 21 28 32 29 19 18 13 7 5 8 13 16 19 21 22 22 21 19 18 19 20 19 19 20 20 21
27 26 23 29 26 28 26 19 13 10 4 4 8 11 16 14 11 16 20 16 23 19 20 17 8 4 8 14 18 20 20 19 19 19 20 20 19 18 17 17 18 19 19 20
27 29 29 25 24 28 20 19 15 19 14 13 15 7 10 14 16 19 21 21 18 17 11 8 4 8 13 17 20 19 18 18 18 18 18 17 17 16 15 15 14 14 14 14
24 28 29 26 20 26 31 23 25 20 16 11 12 12 12 17 19 20 17 15 9 9 7 3 5 8 13 18 19 18 19 18 18 17 17 16 14 13 12 13 13 14 15 16
21 19 17 22 24 21 21 23 2 22 17 11 14 12 14 19 20 19 17 15 13 13 7 5 5 10 16 18 18 19 20 19 17 16 16 14 11 11 13 13 13 14 16 17
18 15 12 7 11 8 9 18 22 2 15 16 15 9 15 20 21 20 19 12 11 12 10 6 7 12 18 21 22 23 22 20 18 15 12 12 11 11 12 13 15 15 15 13
28 17 10 18 14 2 7 15 12 28 20 17 23 19 6 22 23 21 18 18 13 10 10 7 9 14 18 20 23 23 21 18 14 11 10 10 12 14 15 14 14 12 12 13
Wind_Direction
321 222 276 289 306 294 312 245 145 143 173 207 159 128 135 106 149 188 177 155 174 176 204 202 212 205 199 203 203 203 202 205 194 179 191 194 239 254 258 265 217 175 118 87
298 314 289 302 290 301 309 157 151 141 142 164 150 132 155 164 86 142 159 145 152 175 213 221 197 203 199 211 214 216 194 209 206 191 185 241 221 247 260 214 241 230 146 189
277 262 290 288 316 302 316 74 163 172 160 166 139 130 163 189 273 323 118 146 152 143 151 165 160 189 198 203 212 201 194 202 211 213 231 244 245 261 278 266 282 293 291 329
278 275 278 290 271 321 333 347 325 291 166 158 199 156 173 220 218 253 187 137 128 142 160 141 144 150 162 180 185 185 195 197 202 226 250 259 257 252 257 265 274 271 284 313
273 285 279 255 289 311 296 286 313 287 265 265 168 118 20 223 220 223 233 241 207 235 161 132 138 140 155 155 160 171 179 194 205 246 252 252 253 251 259 263 269 268 220 214
263 284 283 274 280 276 270 269 269 261 261 81 160 196 189 222 207 196 218 229 248 242 229 162 160 162 166 166 178 185 198 207 222 235 248 249 249 250 258 264 261 290 283 185
241 240 240 247 288 265 263 262 262 298 262 182 175 191 221 230 202 192 202 225 261 257 261 212 159 178 199 193 194 196 206 222 226 238 245 257 258 251 256 266 265 278 295 310
289 284 249 229 264 302 288 317 231 209 240 155 150 131 25 262 187 183 187 207 210 247 244 184 123 112 86 49 246 251 221 200 207 231 240 241 251 264 258 268 284 294 312 317
247 293 247 213 260 283 290 311 321 300 292 115 90 324 142 152 115 188 197 203 204 206 237 246 310 315 341 352 359 343 346 308 259 227 257 271 265 261 274 269 273 294 312 295
231 188 239 293 243 291 265 300 303 335 29 107 138 185 182 207 206 322 203 226 216 205 200 232 281 278 285 322 326 312 312 322 320 281 259 265 270 277 274 271 270 275 280 291
236 299 302 317 3 321 322 304 310 328 318 159 150 94 138 154 51 78 152 195 221 155 175 206 219 253 243 273 266 286 290 298 300 299 271 260 267 271 272 271 270 275 278 283
245 278 299 243 72 357 313 302 295 289 307 71 104 81 158 165 128 127 156 115 136 136 182 190 216 232 209 235 234 247 269 283 290 285 248 260 273 281 281 281 274 272 278 274
241 263 330 53 176 294 296 331 350 342 24 36 86 186 206 203 341 140 160 135 155 202 177 177 175 169 168 170 138 155 160 168 235 254 259 265 281 298 293 278 273 267 277 274
249 264 275 310 358 329 274 320 348 346 44 103 127 157 153 126 140 162 163 160 179 196 185 180 182 172 170 150 146 160 167 202 267 258 267 283 273 280 289 297 285 283 289 292
313 246 258 277 252 262 273 300 310 321 330 338 197 191 165 143 95 198 166 190 198 182 206 193 189 187 173 171 175 169 171 215 276 308 312 312 304 298 292 292 296 296 289 287
353 248 250 276 283 282 280 287 282 285 297 308 318 226 188 145 143 146 179 185 192 178 208 206 194 192 188 194 195 256 292 276 295 298 288 287 288 289 286 285 283 281 282 282
260 221 248 263 277 293 295 286 339 16 29 19 19 43 172 154 150 151 162 182 188 177 210 209 203 206 200 204 218 261 296 294 290 288 285 280 276 275 276 276 275 274 274 275
297 313 301 266 283 296 288 299 316 316 313 339 322 119 187 146 129 135 157 165 176 199 194 205 222 229 209 237 252 271 288 298 300 299 294 290 287 284 281 279 275 272 271 272
272 283 292 292 293 286 266 282 7 4 35 44 11 331 151 140 139 147 157 184 191 196 205 226 238 237 231 246 276 298 306 311 312 311 308 303 298 293 288 284 282 281 278 275
262 266 265 275 273 248 276 274 336 273 311 319 328 211 172 172 167 162 181 194 200 209 225 247 253 237 255 294 305 311 318 316 315 315 312 309 303 296 291 291 286 284 283 279
265 266 268 255 259 264 267 257 265 275 206 250 64 182 187 202 208 189 193 201 207 221 233 245 231 261 294 308 316 317 318 316 314 312 310 308 304 299 296 292 291 289 286 285
262 270 272 275 270 278 262 243 255 288 238 214 225 235 207 187 182 189 203 215 224 234 222 195 246 300 321 324 325 324 318 316 314 313 309 302 297 295 294 292 291 291 293 295
264 265 274 270 273 254 248 262 271 250 217 194 183 209 197 187 185 199 220 226 235 191 200 245 302 330 331 327 324 324 322 319 315 312 305 299 296 297 294 294 297 297 295 291
249 261 284 279 271 281 280 248 68 220 208 193 198 196 211 208 218 226 233 244 210 206 215 226 296 332 329 328 329 325 325 321 316 308 302 302 302 297 298 303 303 300 298 300
256 262 334 313 264 253 18 245 223 226 207 181 166 171 215 220 233 234 228 237 235 240 229 252 303 325 336 337 335 330 329 322 317 310 306 300 311 312 311 310 308 307 306 306
239 240 301 316 306 326 162 111 217 223 213 220 194 176 216 221 235 236 228 218 226 265 246 263 317 335 338 338 332 331 330 328 322 315 312 312 314 313 313 315 316 319 320 313
Height
3167 3169 3165 3160 3159 3156 3154 3160 3157 3158 3164 3162 3164 3169 3170 3166 3164 3162 3164 3164 3165 3167 3169 3172 3174 3178 3182 3185 3189 3194 3197 3201 3203 3204 3206 3206 3207 3208 3209 3209 3210 3212 3213 3215
3166 3168 3162 3162 3160 3157 3154 3159 3157 3159 3162 3163 3168 3170 3169 3166 3165 3165 3164 3165 3166 3167 3167 3168 3170 3175 3180 3183 3187 3191 3196 3197 3200 3202 3204 3206 3207 3208 3209 3208 3208 3210 3212 3214
3165 3165 3161 3161 3157 3156 3158 3158 3158 3158 3160 3161 3162 3169 3166 3170 3168 3169 3169 3169 3169 3170 3170 3169 3169 3171 3175 3179 3185 3189 3191 3197 3200 3200 3203 3206 3206 3208 3208 3208 3209 3209 3212 3213
3163 3159 3161 3161 3157 3158 3156 3156 3157 3158 3158 3159 3157 3165 3169 3172 3172 3172 3172 3172 3172 3174 3175 3174 3173 3173 3175 3177 3181 3187 3191 3194 3197 3199 3202 3203 3205 3206 3207 3207 3208 3210 3211 3212
3160 3159 3159 3159 3158 3156 3156 3155 3156 3156 3155 3156 3159 3165 3169 3172 3174 3173 3175 3175 3174 3174 3176 3177 3178 3178 3179 3180 3183 3186 3190 3192 3196 3199 3200 3202 3205 3206 3205 3206 3207 3208 3205 3206
3157 3155 3156 3155 3155 3154 3154 3153 3152 3152 3151 3155 3158 3159 3163 3164 3163 3175 3178 3179 3177 3177 3177 3178 3179 3180 3181 3182 3184 3187 3190 3192 3194 3197 3198 3199 3201 3202 3203 3205 3208 3208 3200 3185
3153 3152 3152 3154 3153 3151 3151 3151 3149 3151 3149 3151 3153 3159 3160 3163 3169 3174 3182 3184 3181 3181 3180 3178 3179 3181 3181 3182 3184 3187 3188 3191 3192 3194 3197 3197 3198 3199 3200 3202 3204 3207 3207 3189
3152 3150 3149 3151 3150 3149 3147 3147 3147 3151 3147 3147 3152 3159 3160 3160 3161 3164 3172 3177 3177 3180 3179 3180 3181 3181 3181 3184 3185 3185 3189 3190 3191 3193 3196 3197 3197 3197 3199 3200 3201 3203 3206 3203
3151 3148 3149 3148 3149 3149 3145 3145 3145 3142 3137 3154 3161 3166 3164 3161 3164 3167 3168 3166 3161 3169 3174 3178 3180 3180 3180 3181 3182 3183 3184 3186 3189 3192 3193 3194 3195 3196 3198 3199 3200 3201 3202 3203
3149 3148 3148 3147 3147 3146 3145 3145 3143 3142 3142 3152 3158 3161 3158 3160 3163 3169 3168 3161 3161 3151 3167 3176 3178 3178 3180 3181 3181 3181 3182 3183 3186 3188 3191 3193 3194 3195 3197 3198 3199 3201 3202 3202
3146 3147 3147 3145 3145 3144 3144 3143 3143 3142 3140 3139 3151 3154 3158 3159 3159 3153 3162 3164 3163 3161 3169 3175 3178 3179 3179 3181 3182 3181 3181 3182 3184 3186 3188 3191 3192 3194 3195 3196 3197 3197 3199 3200
3145 3145 3144 3144 3143 3149 3144 3141 3141 3141 3140 3140 3142 3155 3157 3157 3163 3157 3165 3162 3168 3163 3172 3179 3180 3180 3180 3180 3181 3181 3181 3183 3185 3185 3186 3189 3190 3191 3192 3193 3194 3193 3195 3196
3143 3144 3146 3145 3146 3144 3142 3142 3140 3139 3139 3141 3140 3149 3150 3158 3158 3162 3166 3165 3169 3172 3177 3178 3179 3180 3181 3181 3180 3180 3182 3184 3185 3185 3185 3186 3186 3187 3188 3188 3189 3191 3190 3192
3142 3142 3144 3145 3146 3143 3140 3140 3140 3140 3141 3143 3142 3143 3149 3154 3151 3150 3156 3162 3167 3171 3174 3176 3177 3178 3180 3179 3178 3179 3181 3181 3183 3182 3183 3183 3184 3184 3185 3184 3183 3183 3184 3185
3138 3138 3140 3141 3142 3143 3143 3141 3141 3141 3141 3141 3140 3139 3143 3145 3146 3148 3153 3160 3163 3166 3171 3174 3175 3177 3177 3176 3177 3180 3181 3181 3181 3180 3180 3180 3181 3181 3180 3180 3179 3178 3179 3180
3135 3135 3137 3139 3140 3140 3140 3140 3140 3139 3139 3139 3139 3138 3142 3142 3144 3148 3152 3157 3161 3163 3171 3172 3174 3173 3172 3174 3177 3178 3178 3178 3178 3179 3179 3179 3178 3176 3176 3176 3175 3174 3174 3174
3135 3134 3136 3137 3138 3137 3137 3136 3136 3136 3137 3137 3137 3136 3137 3139 3141 3144 3148 3153 3158 3162 3169 3171 3172 3170 3172 3175 3176 3176 3177 3177 3176 3176 3175 3175 3174 3173 3172 3171 3170 3169 3169 3169
3132 3132 3134 3134 3134 3135 3135 3135 3133 3134 3135 3135 3136 3134 3138 3139 3142 3144 3148 3151 3154 3160 3165 3167 3168 3169 3172 3173 3174 3174 3174 3174 3172 3171 3170 3168 3167 3166 3164 3164 3163 3162 3162 3162
3130 3130 3130 3131 3131 3133 3133 3133 3131 3132 3134 3135 3137 3137 3135 3139 3143 3146 3148 3153 3157 3160 3164 3166 3167 3168 3169 3170 3171 3171 3170 3168 3166 3165 3163 3161 3160 3159 3157 3156 3155 3155 3155 3154
3126 3128 3129 3127 3127 3128 3130 3129 3129 3131 3131 3132 3134 3136 3137 3138 3139 3145 3150 3153 3158 3160 3163 3163 3165 3165 3166 3167 3167 3166 3164 3162 3160 3158 3157 3155 3154 3153 3151 3150 3149 3148 3147 3147
3121 3121 3122 3122 3121 3122 3125 3126 3127 3127 3130 3129 3131 3132 3133 3134 3137 3141 3146 3151 3155 3158 3159 3160 3162 3163 3164 3164 3162 3161 3159 3158 3156 3155 3152 3150 3148 3147 3146 3144 3143 3141 3141 3140
3116 3117 3117 3119 3118 3118 3121 3123 3125 3124 3122 3122 3127 3130 3132 3134 3134 3138 3143 3146 3150 3153 3157 3159 3161 3161 3160 3158 3157 3156 3155 3153 3152 3150 3148 3146 3145 3143 3141 3139 3137 3136 3136 3135
3110 3113 3113 3115 3114 3111 3114 3116 3120 3121 3119 3119 3120 3123 3128 3130 3133 3136 3140 3145 3148 3152 3154 3157 3157 3158 3157 3156 3154 3152 3150 3149 3147 3145 3143 3142 3140 3139 3137 3135 3134 3133 3132 3130
3100 3101 3103 3104 3105 3104 3105 3110 3110 3113 3116 3117 3117 3117 3121 3126 3129 3133 3138 3141 3144 3147 3151 3153 3155 3155 3155 3153 3151 3149 3147 3145 3143 3140 3139 3138 3137 3135 3133 3132 3131 3129 3127 3125
3094 3096 3099 3097 3094 3100 3099 3105 3107 3108 3113 3114 3116 3113 3115 3119 3123 3129 3134 3138 3140 3144 3147 3149 3151 3152 3151 3149 3147 3145 3143 3140 3138 3136 3135 3134 3132 3131 3129 3128 3127 3125 3123 3122
3088 3090 3091 3092 3093 3094 3094 3097 3105 3106 3105 3110 3111 3113 3110 3114 3117 3122 3128 3133 3136 3139 3142 3145 3146 3147 3146 3145 3144 3141 3138 3136 3134 3133 3132 3131 3129 3127 3126 3124 3122 3121 3119 3117